EW9499 Weather Reports


time (UTC)temp
C
wind
direction
speed
KPH
gust
KPH
rain 1hr
cm
rain 24hr
cm
rain mn
cm
humidity
%
barometer
mb
20260505153317 2 0.0 0.0 0.03 0.10 0.08 93 1009.9
20260505152317 2 0.0 0.0 0.03 0.10 0.08 93 1009.9
20260505151316 2 0.0 1.6 0.03 0.08 0.05 93 1009.7
20260505150317 2 0.0 0.0 0.03 0.08 0.05 93 1009.5
20260505140337 2 0.0 0.0 0.00 0.05 0.03 92 1010.4
20260505124338 3 0.0 0.0 0.00 0.05 0.03 92 1010.1
20260505123317 3 0.0 1.6 0.00 0.05 0.03 91 1009.9
20260505122317 3 0.0 0.0 0.00 0.05 0.03 91 1009.9
20260505121317 3 0.0 0.0 0.00 0.05 0.03 91 1010.3
20260505120317 4 0.0 0.0 0.00 0.05 0.03 91 1010.2
20260505115338 4 0.0 0.0 0.00 0.05 0.03 91 1010.5
20260505114317 4 0.0 0.0 0.00 0.05 0.03 91 1010.3
20260505113317 4 0.0 0.0 0.00 0.05 0.03 91 1010.7
20260505112317 4 0.0 0.0 0.00 0.05 0.03 91 1010.7
20260505111317 4 0.0 0.0 0.00 0.05 0.03 91 1010.3
20260505110317 4 0.0 0.0 0.00 0.05 0.03 91 1010.6
20260505101317 5 0.0 0.0 0.00 0.05 0.03 89 1011.1
20260505100317 5 0.0 0.0 0.00 0.05 0.03 88 1011.0
20260505095317 5 0.0 0.0 0.00 0.05 0.03 88 1010.9
20260505094317 5 0.0 0.0 0.00 0.05 0.03 87 1010.8
20260505093317 5 0.0 0.0 0.00 0.05 0.03 87 1011.0
20260505092317 6 0.0 0.0 0.00 0.05 0.03 87 1010.9
20260505091317 6 0.0 0.0 0.00 0.05 0.03 87 1010.4
20260505090317 6 0.0 0.0 0.00 0.05 0.03 86 1010.6
20260505085317 6 0.0 0.0 0.00 0.05 0.03 87 1010.8
20260505084317 6 0.0 0.0 0.00 0.05 0.03 87 1011.7
20260505083317 6 0.0 0.0 0.00 0.05 0.03 87 1011.8
20260505082317 6 0.0 0.0 0.00 0.05 0.03 87 1011.7
20260505081317 7 0.0 0.0 0.00 0.05 0.03 88 1011.4
20260505080317 7 0.0 0.0 0.00 0.05 0.03 88 1011.1
20260505075317 7 0.0 0.0 0.00 0.05 0.03 88 1011.6
20260505074317 7 0.0 0.0 0.00 0.05 0.03 88 1011.8
20260505073317 7 0.0 0.0 0.00 0.05 0.03 87 1011.7
20260505072317 7 0.0 0.0 0.00 0.05 0.03 87 1011.9
20260505071317 7 0.0 0.0 0.03 0.05 0.03 87 1012.2
20260505070357 7 0.0 0.0 0.03 0.05 0.03 86 1012.3
20260505063317 7 0.0 0.0 0.03 0.05 0.03 84 1012.8
20260505061337 8 0.0 1.6 0.00 0.03 0.00 82 1013.3
20260505060317 8 0.0 0.0 0.03 0.03 0.00 80 1013.4
20260505055317 8 0.0 0.0 0.03 0.03 0.03 77 1013.4
20260505054317 8 0.0 0.0 0.03 0.03 0.03 77 1013.3
20260505053317 8 0.0 0.0 0.03 0.03 0.03 76 1013.4
20260505052317 9 0.0 0.0 0.03 0.03 0.03 73 1013.5
20260505051317 10 0.0 0.0 0.03 0.03 0.03 66 1013.2
20260505050317 10 0.0 0.0 0.00 0.00 0.00 65 1013.0
20260505041337 10 0.0 0.0 0.00 0.00 0.00 61 1012.4
20260505040317 10 0.0 0.0 0.00 0.00 0.00 61 1012.7
20260505035317 10 0.0 0.0 0.00 0.00 0.00 65 1012.6
20260505034317 10 0.0 0.0 0.00 0.00 0.00 66 1012.6
20260505033317 10 0.0 0.0 0.00 0.00 0.00 66 1012.6
20260505032317 10 0.0 0.0 0.00 0.00 0.00 64 1012.9
20260505031317 10 0.0 0.0 0.00 0.00 0.00 64 1012.3
20260505030317 11 0.0 0.0 0.00 0.00 0.00 64 1012.5
20260505025317 11 0.0 0.0 0.00 0.00 0.00 64 1012.3
20260505024317 12 0.0 0.0 0.00 0.00 0.00 61 1012.3
20260505023316 12 0.0 0.0 0.00 0.00 0.00 54 1011.9
20260505022317 12 0.0 1.6 0.00 0.00 0.00 48 1011.1
20260505021317 13 0.0 4.8 0.00 0.00 0.00 48 1011.4
20260505020316 13 0.0 6.4 0.00 0.00 0.00 48 1010.8
20260505015317 13 0.0 0.0 0.00 0.00 0.00 48 1009.9
20260505014316 13 338 1.6 9.7 0.00 0.00 0.00 47 1009.3
20260505013317 13 0.0 1.6 0.00 0.00 0.00 46 1008.8
20260505012317 13 0.0 3.2 0.00 0.00 0.00 46 1008.4
20260505011337 14 0.0 3.2 0.00 0.00 0.00 44 1008.1
20260505010357 14 338 1.6 8.0 0.00 0.00 0.00 44 1008.1
20260505005316 15 0.0 0.0 0.00 0.00 0.00 42 1008.0
20260505004317 15 0.0 0.0 0.00 0.00 0.00 38 1007.4
20260505003336 15 0.0 1.6 0.00 0.00 0.00 37 1007.4
20260505002317 15 315 11.3 29.0 0.00 0.00 0.00 36 1007.4
20260505001337 16 315 1.6 6.4 0.00 0.00 0.00 34 1007.4
20260505000316 16 0.0 1.6 0.00 0.00 0.00 34 1007.4
20260504235316 16 338 3.2 14.5 0.00 0.00 0.00 33 1007.2
20260504234336 17 0 1.6 14.5 0.00 0.00 0.00 32 1007.1
20260504233316 17 0.0 0.0 0.00 0.00 0.00 27 1007.1
20260504232317 17 315 1.6 9.7 0.00 0.00 0.00 26 1007.0
20260504231336 18 0.0 1.6 0.00 0.00 0.00 26 1006.8
20260504230316 18 338 3.2 14.5 0.00 0.00 0.00 26 1007.0
20260504225316 18 0.0 0.0 0.00 0.00 0.00 25 1006.9
20260504224336 19 0.0 3.2 0.00 0.00 0.00 24 1007.0
20260504223336 20 0.0 1.6 0.00 0.00 0.00 23 1007.5
20260504222316 20 0.0 0.0 0.00 0.00 0.00 23 1007.9
20260504221356 21 0.0 0.0 0.00 0.00 0.00 22 1007.4
20260504220317 21 0.0 0.0 0.00 0.00 0.00 22 1007.8
20260504215316 21 0.0 0.0 0.00 0.00 0.00 21 1008.3
20260504214317 21 0.0 0.0 0.00 0.00 0.00 24 1008.0
20260504213316 20 0.0 1.6 0.00 0.00 0.00 23 1007.7
20260504212316 20 0.0 0.0 0.00 0.00 0.00 24 1008.6
20260504211316 20 0.0 0.0 0.00 0.00 0.00 24 1008.8
20260504210316 20 0.0 0.0 0.00 0.00 0.00 22 1008.6
20260504205316 21 0.0 8.0 0.00 0.00 0.00 22 1009.0
20260504204337 22 0.0 0.0 0.00 0.00 0.00 18 1009.7
20260504203316 22 0.0 0.0 0.00 0.00 0.00 23 1009.9
20260504202316 22 0.0 0.0 0.00 0.00 0.00 22 1009.6
20260504201316 21 0.0 0.0 0.00 0.00 0.00 22 1009.7
20260504200316 20 0.0 0.0 0.00 0.00 0.00 24 1009.3
20260504195316 19 0.0 0.0 0.00 0.00 0.00 24 1009.3
20260504194316 19 293 3.2 12.9 0.00 0.00 0.00 23 1009.1
20260504193316 19 0.0 0.0 0.00 0.00 0.00 22 1009.0
20260504192316 20 0.0 3.2 0.00 0.00 0.00 23 1009.0
20260504191316 19 0.0 0.0 0.00 0.00 0.00 21 1009.0
20260504190316 19 203 1.6 11.3 0.00 0.00 0.00 22 1009.0
20260504185316 19 203 4.8 25.7 0.00 0.00 0.00 20 1009.0
20260504184316 20 0.0 1.6 0.00 0.00 0.00 20 1009.2
20260504183336 21 0.0 1.6 0.00 0.00 0.00 19 1009.3
20260504182316 21 0.0 1.6 0.00 0.00 0.00 18 1009.3
20260504181316 21 0.0 0.0 0.00 0.00 0.00 17 1009.7
20260504180316 22 0.0 3.2 0.00 0.00 0.00 17 1009.9
20260504175316 22 0.0 0.0 0.00 0.00 0.00 18 1010.4
20260504174316 22 0.0 6.4 0.00 0.00 0.00 17 1010.6
20260504173316 22 0.0 1.6 0.00 0.00 0.00 17 1010.7
20260504172316 21 0.0 3.2 0.00 0.00 0.00 19 1010.6
20260504171437 21 0.0 1.6 0.00 0.00 0.00 18 1010.6
20260504170316 21 0.0 0.0 0.00 0.00 0.00 17 1010.6
20260504160336 21 248 4.8 11.3 0.00 0.00 0.00 20 1011.2